[[{"header":{"parameterUnit":"m.s-1","parameterCategory":1,"la1":30.2991,"la2":30.254,"lo1":-89.0895,"lo2":-89.0444,"dy":0.0017,"dx":0.0017,"nx":28,"ny":28,"refTime":"2024-08-13T21:00:00:Z","depth":0,"parameterNumber":2,"parameterNumberName":"U-component_of_WINDS"},"data":[0,0,0,0,0,0,0,0,0,0,0,0,0,0,0,0,0,0,0,0,0,0,0,0,0,0,0,0,0,0,0,0,0,0,0,0,0,0,0,0,0,0,0,0,0,0,0,0,0,0,0,0,0,0,0,0,0,0,1.5909,1.591,0,1.6028,1.603,1.6031,1.6068,1.6067,1.6067,1.6066,1.6188,1.6192,1.6195,0,0,0,0,0,0,0,0,0,0,0,0,0,1.571,1.5713,1.5908,1.591,1.5911,1.6028,1.603,1.6031,1.6068,1.6067,1.6067,1.6066,1.6187,1.6191,1.6196,0,0,0,0,0,0,0,0,0,0,0,0,0,1.5809,1.5714,1.5908,1.5944,1.5948,1.6028,1.603,1.6032,1.6068,1.6067,1.6066,1.6066,1.6185,1.6191,1.6196,1.6249,0,0,1.6214,1.6216,0,0,0,0,0,0,0,0,1.5804,1.5817,1.5937,1.5942,1.5947,1.6032,1.6004,1.6104,1.6068,1.6023,1.6066,1.6065,1.6137,1.6146,1.6171,1.6254,1.626,1.6214,1.6218,1.622,1.6222,0,0,0,0,0,0,0,1.5797,1.5812,1.5956,1.5939,1.5945,1.5953,1.5966,1.6023,1.6083,1.6027,1.603,1.6043,1.6139,1.6165,1.6174,1.6261,1.6214,1.6219,1.6223,1.6225,1.6393,1.6394,0,0,0,0,0,0,1.5784,1.5806,1.5952,1.5959,1.5872,1.5958,1.5972,1.6006,1.6083,1.6094,1.6044,1.6045,1.6156,1.6167,1.6178,1.6244,1.622,1.6225,1.6229,1.6392,1.6393,1.6394,0,0,0,0,0,0,1.578,1.5797,1.5947,1.5883,1.5903,1.5962,1.5999,1.6008,1.6034,1.6096,1.6106,1.606,1.6156,1.617,1.6231,1.6248,1.6228,1.6233,1.639,1.6392,1.6393,1.6375,0,0,0,0,0,0,1.5774,1.5795,1.5816,1.5884,1.5906,1.5998,1.6,1.6011,1.6044,1.6046,1.6113,1.6123,1.6156,1.6222,1.6236,1.6256,1.6238,1.6389,1.6391,1.6393,1.6374,1.6376,1.6377,0,0,0,0,0,1.5767,1.5806,1.5817,1.5834,1.5934,1.5999,1.6012,1.6049,1.6046,1.6067,1.6106,1.6121,1.6244,1.6228,1.6244,1.6266,1.6388,1.639,1.6393,1.6373,1.6375,1.6377,0,0,0,0,0,0,1.5738,1.5815,1.5828,1.5891,1.5938,1.6005,1.6033,1.605,1.6099,1.6098,1.6142,1.6157,1.6214,1.6246,1.6226,1.632,1.6317,1.6322,1.6296,1.6299,1.63,1.6291,1.6242,0,0,0,0,0,1.5739,1.5786,1.5851,1.59,1.5923,1.5973,1.6003,1.6028,1.6078,1.6098,1.6142,1.619,1.6239,1.6271,1.632,1.6379,1.6394,1.6402,1.6403,1.6404,1.6408,1.6441,1.6445,1.6402,1.6402,1.6402,0,0,1.5742,1.579,1.5817,1.5895,1.5935,1.5981,1.599,1.6039,1.6074,1.6106,1.6165,1.6199,1.6255,1.6315,1.6343,1.6343,1.6423,1.6407,1.6407,1.6411,1.6444,1.6448,1.6451,1.6403,1.6403,1.6403,0,0,1.577,1.5812,1.5856,1.5896,1.5955,1.5989,1.5999,1.6064,1.6087,1.6148,1.6172,1.6214,1.6299,1.6337,1.6368,1.6411,1.6426,1.6425,1.6432,1.6463,1.6467,1.647,1.6484,1.6488,1.6429,1.6429,1.6429,0,1.5765,1.5837,1.5877,1.5925,1.5958,1.5989,1.6034,1.607,1.6143,1.6165,1.6164,1.627,1.631,1.6379,1.6389,1.6413,1.6426,1.6417,1.6463,1.6467,1.647,1.6484,1.6489,1.6429,1.6429,1.6429,1.6429,0,1.5828,1.5877,1.5906,1.5975,1.6012,1.6058,1.6104,1.6137,1.6158,1.6191,1.6251,1.6301,1.636,1.6378,1.64,1.645,1.6448,1.6454,1.6452,1.6473,1.6486,1.6492,1.6428,1.6428,1.6428,1.6429,0,0,1.5841,1.5932,1.5941,1.5973,1.6041,1.6079,1.6127,1.6184,1.6211,1.626,1.6299,1.637,1.6376,1.6411,1.6437,1.6465,1.6494,1.6468,1.647,1.647,1.655,1.6544,1.655,1.6505,1.6506,1.6507,1.6545,0,1.5877,1.5963,1.6,1.6069,1.6114,1.6144,1.6185,1.6231,1.6263,1.6306,1.6342,1.639,1.6396,1.6417,1.6446,1.6484,1.651,1.6482,1.6541,1.6543,1.6525,1.6557,1.6551,1.6584,1.6551,1.6552,1.6553,0,1.593,1.5979,1.6053,1.6115,1.6135,1.6171,1.6227,1.6268,1.632,1.6341,1.638,1.6404,1.6454,1.6449,1.6518,1.6498,1.6524,1.6547,1.6549,1.6555,1.6548,1.6563,1.6596,1.6601,1.6562,1.6561,1.656,0,1.5931,1.6015,1.607,1.6096,1.617,1.6194,1.6226,1.6278,1.631,1.6358,1.6379,1.6433,1.6462,1.6502,1.654,1.6533,1.6605,1.6603,1.6623,1.6622,1.6637,1.6635,1.6673,1.6655,1.6655,1.6655,1.6655,0,1.5966,1.601,1.6071,1.6105,1.6154,1.6196,1.6243,1.6277,1.6322,1.6362,1.6391,1.6428,1.6477,1.6519,1.6549,1.6601,1.6614,1.6632,1.664,1.6629,1.6627,1.6646,1.6645,1.6657,1.6656,1.6656,1.6656,0,1.5975,1.6018,1.6079,1.6144,1.6161,1.6195,1.625,1.6283,1.6317,1.6367,1.6381,1.6434,1.6485,1.6527,1.6595,1.6615,1.6669,1.6678,1.6651,1.6655,1.6672,1.6669,1.6724,1.6733,1.6709,1.6709,1.671,0,1.5994,1.6028,1.6097,1.6126,1.6157,1.6204,1.6237,1.6279,1.6312,1.6374,1.6399,1.6453,1.6498,1.6579,1.6623,1.6675,1.6685,1.67,1.6692,1.6681,1.6684,1.6681,1.6684,1.67,1.67,1.67,1.6701,0,1.6023,1.6043,1.6089,1.6143,1.6182,1.6227,1.6272,1.6294,1.6344,1.6379,1.6433,1.6468,1.6537,1.6589,1.6646,1.6678,1.6697,1.6703,1.671,1.6699,1.6682,1.669,1.6652,1.6701,1.6701,1.6701,1.6701,1.6701,1.6037,1.6068,1.6121,1.6172,1.6211,1.6252,1.6286,1.6324,1.6369,1.6429,1.6451,1.6506,1.6556,1.6634,1.6666,1.6709,1.6711,1.6721,1.6724,1.6726,1.6724,1.6676,1.6719,1.6719,1.6719,1.672,1.672,0,1.6066,1.6102,1.6149,1.6211,1.6251,1.6266,1.6317,1.6349,1.6396,1.6442,1.6486,1.6547,1.6598,1.6646,1.6699,1.6724,1.6734,1.6736,1.6734,1.6741,1.672,1.6707,1.6727,1.6727,1.6727,1.6727,1.6727,1.6727,1.6086,1.614,1.6166,1.6238,1.6274,1.6328,1.6355,1.6393,1.643,1.6496,1.6539,1.657,1.6617,1.6674,1.6721,1.6734,1.6751,1.6751,1.6766,1.6744,1.6743,1.6742,1.6731,1.6755,1.6755,1.6784,1.6785,1.6785]},{"header":{"parameterUnit":"m.s-1","parameterCategory":1,"la1":30.2991,"la2":30.254,"lo1":-89.0895,"lo2":-89.0444,"dy":0.0017,"dx":0.0017,"nx":28,"ny":28,"refTime":"2024-08-13T21:00:00:Z","depth":0,"parameterNumber":3,"parameterNumberName":"V-component_of_WINDS"},"data":[0,0,0,0,0,0,0,0,0,0,0,0,0,0,0,0,0,0,0,0,0,0,0,0,0,0,0,0,0,0,0,0,0,0,0,0,0,0,0,0,0,0,0,0,0,0,0,0,0,0,0,0,0,0,0,0,0,0,4.5449,4.5449,0,4.5411,4.5411,4.541,4.5396,4.5396,4.5396,4.5396,4.5351,4.535,4.5349,0,0,0,0,0,0,0,0,0,0,0,0,0,4.5503,4.5502,4.5449,4.5449,4.5448,4.5411,4.5411,4.541,4.5396,4.5396,4.5396,4.5396,4.5352,4.535,4.5348,0,0,0,0,0,0,0,0,0,0,0,0,0,4.5474,4.5502,4.5449,4.5437,4.5435,4.5412,4.5411,4.541,4.5396,4.5396,4.5396,4.5396,4.5352,4.535,4.5348,4.5332,0,0,4.5342,4.5341,0,0,0,0,0,0,0,0,4.5476,4.5472,4.5439,4.5438,4.5436,4.5409,4.5413,4.5384,4.5396,4.5411,4.5396,4.5396,4.537,4.5366,4.5359,4.533,4.5328,4.5342,4.5341,4.534,4.5339,0,0,0,0,0,0,0,4.5478,4.5473,4.5434,4.5439,4.5437,4.5431,4.5427,4.5408,4.5389,4.5409,4.5408,4.5404,4.5369,4.5361,4.5357,4.5328,4.5342,4.534,4.5339,4.5338,4.5283,4.5283,0,0,0,0,0,0,4.5483,4.5475,4.5435,4.5433,4.5457,4.543,4.5426,4.5417,4.539,4.5386,4.5404,4.5404,4.5364,4.536,4.5356,4.5335,4.534,4.5338,4.5337,4.5284,4.5283,4.5283,0,0,0,0,0,0,4.5484,4.5479,4.5437,4.5454,4.5448,4.5429,4.5419,4.5416,4.5408,4.5386,4.5382,4.5399,4.5364,4.5359,4.5339,4.5333,4.5337,4.5336,4.5284,4.5283,4.5283,4.5293,0,0,0,0,0,0,4.5485,4.548,4.5475,4.5454,4.5447,4.5422,4.5419,4.5415,4.5405,4.5404,4.538,4.5376,4.5364,4.5342,4.5337,4.533,4.5334,4.5284,4.5284,4.5283,4.5293,4.5293,4.5293,0,0,0,0,0,4.5487,4.5478,4.5475,4.547,4.5441,4.5422,4.5418,4.5405,4.5405,4.5399,4.5385,4.5377,4.5335,4.534,4.5334,4.5327,4.5285,4.5284,4.5283,4.5293,4.5293,4.5293,0,0,0,0,0,0,4.5497,4.5475,4.5471,4.5455,4.5441,4.542,4.5412,4.5406,4.5389,4.5389,4.5372,4.5366,4.5347,4.5335,4.5341,4.531,4.5309,4.5307,4.5319,4.5318,4.5318,4.5321,4.5332,0,0,0,0,0,4.5498,4.5486,4.5467,4.5454,4.5448,4.5431,4.5422,4.5414,4.5397,4.539,4.5374,4.5357,4.5339,4.5328,4.5311,4.5292,4.5285,4.5284,4.5284,4.5284,4.5282,4.527,4.5269,4.5281,4.5281,4.5281,0,0,4.5499,4.5485,4.5478,4.5456,4.5444,4.543,4.5426,4.5412,4.5401,4.5387,4.5368,4.5356,4.5335,4.5315,4.5305,4.5304,4.5278,4.5283,4.5283,4.5282,4.5269,4.5268,4.5267,4.528,4.528,4.528,0,0,4.5493,4.5482,4.547,4.5458,4.5441,4.543,4.5427,4.5406,4.5398,4.5379,4.5369,4.5354,4.5325,4.531,4.5299,4.5287,4.5279,4.5282,4.5281,4.527,4.5269,4.5268,4.5262,4.5261,4.5281,4.5281,4.5281,0,4.5495,4.5476,4.5465,4.5451,4.5441,4.543,4.5417,4.5406,4.5382,4.5375,4.5374,4.5337,4.5322,4.5298,4.5296,4.5287,4.5282,4.5285,4.527,4.5269,4.5268,4.5263,4.5261,4.5281,4.5281,4.5281,4.5281,0,4.5479,4.5466,4.5458,4.5438,4.5427,4.5414,4.5399,4.5389,4.5381,4.5369,4.5349,4.5331,4.531,4.5303,4.5295,4.5278,4.5278,4.5274,4.5272,4.5267,4.5262,4.526,4.5282,4.5281,4.5281,4.5281,0,0,4.5478,4.5453,4.545,4.544,4.542,4.5408,4.5393,4.5375,4.5366,4.535,4.5336,4.5311,4.5308,4.5295,4.5285,4.5274,4.5265,4.5272,4.5271,4.527,4.5243,4.5246,4.5244,4.526,4.5259,4.5259,4.5245,0,4.5469,4.5445,4.5434,4.5414,4.5401,4.539,4.5377,4.5362,4.5351,4.5336,4.5323,4.5305,4.5303,4.5295,4.5284,4.5269,4.5259,4.5269,4.5245,4.5244,4.525,4.5241,4.5244,4.5232,4.5243,4.5242,4.5242,0,4.5455,4.5441,4.542,4.5401,4.5395,4.5384,4.5365,4.5352,4.5334,4.5326,4.5312,4.5302,4.5284,4.5285,4.5259,4.5266,4.5255,4.5246,4.5245,4.5241,4.5242,4.5237,4.5227,4.5225,4.5239,4.5239,4.524,0,4.5456,4.5431,4.5416,4.5408,4.5385,4.5377,4.5367,4.5349,4.5338,4.5321,4.5314,4.5294,4.5283,4.5267,4.5251,4.5253,4.5226,4.5226,4.5218,4.5218,4.5212,4.5212,4.52,4.5206,4.5206,4.5206,4.5206,0,4.5446,4.5434,4.5416,4.5406,4.5391,4.5378,4.5362,4.5351,4.5335,4.5321,4.531,4.5297,4.5278,4.5261,4.5249,4.5228,4.5223,4.5215,4.5212,4.5216,4.5217,4.5208,4.5208,4.5206,4.5206,4.5206,4.5206,0,4.5444,4.5432,4.5414,4.5394,4.5389,4.5379,4.5361,4.5349,4.5338,4.532,4.5315,4.5296,4.5276,4.5259,4.5233,4.5224,4.5202,4.5199,4.5209,4.5207,4.52,4.5201,4.5181,4.5177,4.5187,4.5187,4.5187,0,4.5439,4.5429,4.5409,4.54,4.539,4.5376,4.5365,4.5351,4.534,4.5318,4.5309,4.5289,4.5272,4.5241,4.5223,4.5202,4.5197,4.5191,4.5194,4.5198,4.5196,4.5196,4.5194,4.5191,4.5191,4.5191,4.5191,0,4.543,4.5424,4.5411,4.5394,4.5382,4.5368,4.5354,4.5346,4.5329,4.5317,4.5297,4.5285,4.5258,4.5237,4.5215,4.5201,4.5192,4.5191,4.5187,4.5191,4.5197,4.5193,4.5208,4.5191,4.5191,4.5191,4.5191,4.5191,4.5425,4.5416,4.54,4.5385,4.5373,4.5359,4.5348,4.5335,4.532,4.5299,4.5291,4.5271,4.5251,4.522,4.5207,4.5189,4.5188,4.5183,4.5182,4.5181,4.5181,4.5201,4.5185,4.5185,4.5185,4.5185,4.5185,0,4.5415,4.5405,4.5391,4.5372,4.5359,4.5354,4.5338,4.5327,4.531,4.5294,4.5278,4.5255,4.5234,4.5215,4.5194,4.5183,4.5178,4.5178,4.5178,4.5174,4.5184,4.5189,4.5182,4.5182,4.5182,4.5182,4.5182,4.5182,4.5409,4.5392,4.5385,4.5362,4.5351,4.5333,4.5323,4.531,4.5297,4.5273,4.5257,4.5245,4.5227,4.5204,4.5184,4.5179,4.5171,4.5171,4.5164,4.5173,4.5174,4.5174,4.5179,4.517,4.517,4.5156,4.5156,4.5156]}]]